Olean, NY

2:57 AM EST on November 21, 2019 (GMT -0500)
Cattaraugus County-Olean

Weather History for KOLE - September, 2019

Change the Weather History Date:

Friday, September 20, 2019

  Actual Average (WUND) Record (WUND)
Temperature  
Mean Temperature 60 °F -  
Max Temperature 75 °F - - (-1)
Min Temperature 46 °F - - (-1)
Degree Days  
Heating Degree Days 4    
Growing Degree Days 10 (Base 50)    
Moisture  
Dew Point 50 °F    
Average Humidity 75    
Maximum Humidity 100    
Minimum Humidity 41    
Precipitation  
Precipitation 0.00 in - - ()
Sea Level Pressure  
Sea Level Pressure 30.26 in    
Wind  
Wind Speed 4 mph ()    
Max Wind Speed 9 mph    
Max Gust Speed -    
Visibility 10.0 miles    
Events      
Averages and records for this station are not official NWS values.
T = Trace of Precipitation, MM = Missing Value Source: Averaged Metar Reports

Daily Weather History Graph

Daily Weather History Graph

Search for Another Location

Airport or City:

Astronomy

Sep. 20, 2019 Rise Set
Actual Time 6:58 AM EDT 7:14 PM EDT
Civil Twilight 6:30 AM EDT 7:42 PM EDT
Nautical Twilight 5:57 AM EDT 8:15 PM EDT
Astronomical Twilight 5:23 AM EDT 8:49 PM EDT
Moon 10:56 PM EDT (9/20) 1:07 PM EDT (9/20)
Length of Visible Light 13h 12m
Length of Day
12h 16m
Waning Gibbous, 65% of the Moon is Illuminated
Sep 20
Waning Gibbous
Sep 21
Last Quarter
Sep 28
New
Oct 5
First Quarter
Oct 13
Full

Hourly Weather History & Observations

Time (EDT) Temp. Windchill Dew Point Humidity Pressure Visibility Wind Dir Wind Speed Gust Speed Precip Events Conditions
12:15 AM 51.8 °F - 48.2 °F 88% 30.26 in 10.0 mi SSW 5.8 mph - N/A   Clear
12:35 AM 50.0 °F - 48.2 °F 94% 30.26 in 10.0 mi SSW 4.6 mph - N/A   Clear
12:55 AM 51.8 °F - 48.2 °F 88% 30.26 in 10.0 mi SSW 4.6 mph - N/A   Clear
1:15 AM 50.0 °F - 48.2 °F 94% 30.26 in 10.0 mi SSW 6.9 mph - N/A   Clear
1:35 AM 50.0 °F - 48.2 °F 94% 30.26 in 10.0 mi SSW 4.6 mph - N/A   Clear
2:15 AM 50.0 °F - 50.0 °F 100% 30.26 in 10.0 mi SSW 5.8 mph - N/A   Clear
2:35 AM 50.0 °F - 50.0 °F 100% 30.25 in 10.0 mi SSW 6.9 mph - N/A   Clear
2:55 AM 48.2 °F - 48.2 °F 100% 30.25 in 10.0 mi South 6.9 mph - N/A   Clear
3:15 AM 50.0 °F - 48.2 °F 94% 30.24 in 10.0 mi South 8.1 mph - N/A   Clear
3:35 AM 50.0 °F - 48.2 °F 94% 30.24 in 10.0 mi SSW 6.9 mph - N/A   Clear
3:55 AM 50.0 °F - 48.2 °F 94% 30.24 in 10.0 mi SSW 9.2 mph - N/A   Clear
4:15 AM 48.2 °F - 48.2 °F 100% 30.25 in 10.0 mi SSW 8.1 mph - N/A   Clear
4:35 AM 48.2 °F - 48.2 °F 100% 30.24 in 10.0 mi SSW 8.1 mph - N/A   Clear
4:55 AM 48.2 °F - 48.2 °F 100% 30.25 in 10.0 mi SSW 9.2 mph - N/A   Clear
5:15 AM 48.2 °F - 48.2 °F 100% 30.25 in 10.0 mi SSW 9.2 mph - N/A   Clear
5:35 AM 46.4 °F 42.9 °F 46.4 °F 100% 30.26 in 10.0 mi SSW 6.9 mph - N/A   Clear
5:55 AM 46.4 °F 44.3 °F 46.4 °F 100% 30.26 in 10.0 mi SW 4.6 mph - N/A   Clear
6:15 AM 46.4 °F 43.5 °F 46.4 °F 100% 30.26 in 10.0 mi SSW 5.8 mph - N/A   Clear
6:35 AM 46.4 °F 42.4 °F 46.4 °F 100% 30.26 in 10.0 mi SSW 8.1 mph - N/A   Clear
6:55 AM 46.4 °F 43.5 °F 46.4 °F 100% 30.27 in 10.0 mi SSW 5.8 mph - N/A   Clear
7:15 AM 46.4 °F 43.5 °F 46.4 °F 100% 30.27 in 10.0 mi SSW 5.8 mph - N/A   Clear
7:35 AM 46.4 °F 45.2 °F 46.4 °F 100% 30.28 in 10.0 mi SW 3.5 mph - N/A   Clear
7:55 AM 46.4 °F 45.2 °F 46.4 °F 100% 30.28 in 10.0 mi SW 3.5 mph - N/A   Clear
8:15 AM 50.0 °F - 50.0 °F 100% 30.28 in 10.0 mi SW 3.5 mph - N/A   Clear
8:35 AM 50.0 °F - 50.0 °F 100% 30.28 in 10.0 mi SSW 5.8 mph - N/A   Clear
8:55 AM 50.0 °F - 50.0 °F 100% 30.29 in 10.0 mi SSW 5.8 mph - N/A   Clear
9:15 AM 51.8 °F - 50.0 °F 94% 30.29 in 10.0 mi SSW 4.6 mph - N/A   Clear
9:35 AM 51.8 °F - 50.0 °F 94% 30.29 in 10.0 mi SSW 5.8 mph - N/A   Clear
9:55 AM 53.6 °F - 50.0 °F 88% 30.29 in 10.0 mi SSW 3.5 mph - N/A   Clear
10:15 AM 57.2 °F - 50.0 °F 77% 30.29 in 10.0 mi Calm Calm - N/A   Clear
10:35 AM 59.0 °F - 50.0 °F 72% 30.29 in 10.0 mi Calm Calm - N/A   Clear
10:55 AM 60.8 °F - 51.8 °F 72% 30.29 in 10.0 mi Calm Calm - N/A   Clear
11:15 AM 62.6 °F - 50.0 °F 63% 30.28 in 10.0 mi Calm Calm - N/A   Clear
11:35 AM 64.4 °F - 50.0 °F 59% 30.28 in 10.0 mi Calm Calm - N/A   Clear
11:55 AM 66.2 °F - 51.8 °F 60% 30.27 in 10.0 mi ESE 3.5 mph - N/A   Clear
12:15 PM 68.0 °F - 51.8 °F 56% 30.27 in 10.0 mi East 4.6 mph - N/A   Clear
12:35 PM 68.0 °F - 51.8 °F 56% 30.26 in 10.0 mi SSW 3.5 mph - N/A   Clear
12:55 PM 69.8 °F - 53.6 °F 56% 30.26 in 10.0 mi South 3.5 mph - N/A   Clear
1:15 PM 69.8 °F - 51.8 °F 53% 30.26 in 10.0 mi SE 3.5 mph - N/A   Clear
1:35 PM 69.8 °F - 51.8 °F 53% 30.25 in 10.0 mi SSW 4.6 mph - N/A   Clear
1:55 PM 71.6 °F - 53.6 °F 53% 30.25 in 10.0 mi East 4.6 mph - N/A   Clear
2:15 PM 71.6 °F - 51.8 °F 50% 30.24 in 10.0 mi Calm Calm - N/A   Clear
2:35 PM 71.6 °F - 50.0 °F 46% 30.24 in 10.0 mi Calm Calm - N/A   Clear
2:55 PM 71.6 °F - 50.0 °F 46% 30.23 in 10.0 mi South 3.5 mph - N/A   Clear
3:15 PM 73.4 °F - 48.2 °F 41% 30.23 in 10.0 mi Calm Calm - N/A   Clear
3:35 PM 71.6 °F - 48.2 °F 43% 30.23 in 10.0 mi Calm Calm - N/A   Clear
3:55 PM 75.2 °F - 50.0 °F 41% 30.22 in 10.0 mi Calm Calm - N/A   Clear
4:15 PM 73.4 °F - 48.2 °F 41% 30.22 in 10.0 mi Calm Calm - N/A   Clear
4:35 PM 73.4 °F - 50.0 °F 44% 30.22 in 10.0 mi Calm Calm - N/A   Clear
4:55 PM 73.4 °F - 48.2 °F 41% 30.23 in 10.0 mi Calm Calm - N/A   Clear
5:15 PM 71.6 °F - 51.8 °F 50% 30.23 in 10.0 mi SW 4.6 mph - N/A   Clear
5:35 PM 71.6 °F - 51.8 °F 50% 30.23 in 10.0 mi SSW 3.5 mph - N/A   Clear
5:55 PM 71.6 °F - 51.8 °F 50% 30.23 in 10.0 mi SSW 3.5 mph - N/A   Clear
6:15 PM 71.6 °F - 51.8 °F 50% 30.24 in 10.0 mi SSW 4.6 mph - N/A   Clear
6:35 PM 69.8 °F - 51.8 °F 53% 30.23 in 10.0 mi Calm Calm - N/A   Clear
6:55 PM 68.0 °F - 50.0 °F 52% 30.23 in 10.0 mi Calm Calm - N/A   Clear
7:15 PM 66.2 °F - 50.0 °F 56% 30.24 in 10.0 mi Calm Calm - N/A   Clear
7:35 PM 66.2 °F - 50.0 °F 56% 30.24 in 10.0 mi Calm Calm - N/A   Clear
7:55 PM 64.4 °F - 51.8 °F 64% 30.25 in 10.0 mi Calm Calm - N/A   Clear
8:15 PM 64.4 °F - 51.8 °F 64% 30.25 in 10.0 mi Calm Calm - N/A   Clear
8:35 PM 64.4 °F - 51.8 °F 64% 30.25 in 10.0 mi Calm Calm - N/A   Clear
8:55 PM 60.8 °F - 51.8 °F 72% 30.25 in 10.0 mi Calm Calm - N/A   Clear
9:15 PM 62.6 °F - 51.8 °F 68% 30.25 in 10.0 mi Calm Calm - N/A   Clear
9:35 PM 60.8 °F - 53.6 °F 77% 30.25 in 10.0 mi Calm Calm - N/A   Clear
9:55 PM 60.8 °F - 53.6 °F 77% 30.26 in 10.0 mi Calm Calm - N/A   Clear
10:15 PM 62.6 °F - 51.8 °F 68% 30.26 in 10.0 mi Calm Calm - N/A   Clear
10:35 PM 60.8 °F - 53.6 °F 77% 30.26 in 10.0 mi SSW 4.6 mph - N/A   Clear
10:55 PM 60.8 °F - 53.6 °F 77% 30.27 in 10.0 mi SSW 4.6 mph - N/A   Clear
11:15 PM 59.0 °F - 53.6 °F 82% 30.26 in 10.0 mi SSW 4.6 mph - N/A   Clear
11:35 PM 59.0 °F - 53.6 °F 82% 30.27 in 10.0 mi Calm Calm - N/A   Clear
11:55 PM 55.4 °F - 53.6 °F 94% 30.26 in 10.0 mi Calm Calm - N/A   Clear